Location: Wien
(48.2082°N, 16.3738°E)
Time: 02:39:18
(UTC+02:00)

MOZHAYETS 4 - Pass Details

Date: 27 April 2024
Orbit: 652 x 670 km, 98.3° (Epoch: 23 May)

Event Time Altitude Azimuth Distance (km) Brightness Sun altitude
Rises 02:23:08 0° 109° (ESE) 3,015 11.2 -24.6°
Reaches altitude 10° 02:26:35 10° 81° (E) 2,106 10.7 -24.4°
Maximum altitude 02:28:33 13° 55° (NE) 1,929 10.8 -24.3°
Drops below altitude 10° 02:30:31 10° 30° (NNE) 2,111 11.4 -24.1°
Sets 02:33:58 0° 2° (N) 3,028 12.2 -23.9°
